EW4921 Weather Reports


Display with metric or nautical units.
time (UTC)temp
F
wind
direction
speed
MPH
gust
MPH
rain 1hr
in
rain 24hr
in
rain mn
in
humidity
%
barometer
mb
20260502210032 75 324 0.0 5.0 0.00 0.01 0.01 61 1013.3
20260502205533 76 329 0.0 5.0 0.00 0.01 0.01 61 1013.3
20260502205023 76 143 1.0 8.0 0.00 0.01 0.01 63 1013.4
20260502204539 75 246 3.0 8.0 0.00 0.01 0.01 61 1013.5
20260502204028 75 200 0.0 9.0 0.00 0.01 0.01 62 1013.4
20260502203522 75 194 2.0 10.0 0.00 0.01 0.01 63 1013.4
20260502203033 75 167 2.0 10.0 0.00 0.01 0.01 62 1013.4
20260502202535 75 250 4.0 7.0 0.00 0.01 0.01 62 1013.3
20260502202044 75 237 1.0 7.0 0.00 0.01 0.01 63 1013.4
20260502201525 75 337 1.0 8.0 0.00 0.01 0.01 62 1013.5
20260502201033 75 319 1.0 6.0 0.00 0.01 0.01 60 1013.4
20260502200603 76 10 1.0 6.0 0.00 0.01 0.01 61 1013.4
20260502200026 76 360 0.0 4.0 0.00 0.01 0.01 62 1013.4
20260502195521 76 234 0.0 5.0 0.00 0.01 0.01 62 1013.4
20260502195032 76 232 1.0 10.0 0.00 0.01 0.01 60 1013.5
20260502194547 75 215 0.0 10.0 0.00 0.01 0.01 62 1013.7
20260502194022 75 316 0.0 1.0 0.00 0.01 0.01 63 1013.8
20260502193516 74 315 0.0 1.0 0.00 0.01 0.01 61 1013.8
20260502193015 74 203 0.0 2.0 0.00 0.01 0.01 63 1013.9
20260502192535 73 236 0.0 2.0 0.00 0.01 0.01 64 1013.9
20260502192025 73 238 0.0 3.0 0.00 0.01 0.01 66 1013.9
20260502191541 72 236 1.0 3.0 0.00 0.01 0.01 66 1014.0
20260502191029 71 171 0.0 3.0 0.00 0.01 0.01 68 1014.1
20260502190554 71 249 0.0 3.0 0.00 0.01 0.01 69 1014.2
20260502190035 71 219 0.0 4.0 0.00 0.01 0.01 67 1014.3
20260502185558 71 221 0.0 5.0 0.00 0.01 0.01 70 1014.4
20260502185024 70 219 0.0 6.0 0.00 0.01 0.01 70 1014.6
20260502184523 70 227 0.0 5.0 0.00 0.01 0.01 71 1014.5
20260502184017 70 236 0.0 6.0 0.00 0.01 0.01 71 1014.6
20260502183536 69 242 2.0 6.0 0.00 0.01 0.01 70 1014.8
20260502183022 69 167 2.0 7.0 0.00 0.01 0.01 71 1014.7
20260502182523 69 186 0.0 8.0 0.00 0.01 0.01 72 1014.8
20260502182029 68 214 1.0 8.0 0.00 0.01 0.01 73 1014.7
20260502181526 68 179 3.0 7.0 0.00 0.01 0.01 74 1014.7
20260502181015 67 202 3.0 7.0 0.00 0.01 0.01 75 1014.7
20260502180607 66 172 4.0 7.0 0.00 0.01 0.01 76 1014.7
20260502164020 58 77 0.0 2.0 0.00 0.01 0.01 93 1015.4
20260502163522 57 77 0.0 2.0 0.00 0.01 0.01 93 1015.4
20260502163032 57 77 0.0 1.0 0.00 0.01 0.01 93 1015.4
20260502162528 57 77 0.0 5.0 0.00 0.01 0.01 93 1015.3
20260502162026 57 77 1.0 5.0 0.00 0.01 0.01 93 1015.2
20260502161527 57 81 0.0 4.0 0.00 0.01 0.01 93 1015.2
20260502161018 57 74 1.0 3.0 0.00 0.01 0.01 93 1015.3
20260502160601 56 74 1.0 6.0 0.00 0.01 0.01 93 1015.3
20260502152024 55 160 0.0 8.0 0.00 0.01 0.01 93 1014.9
20260502151519 55 163 2.0 8.0 0.00 0.01 0.01 93 1014.8
20260502151031 55 138 0.0 7.0 0.00 0.01 0.01 93 1014.7
20260502150551 55 82 0.0 1.0 0.00 0.01 0.01 93 1014.6
20260502130611 50 324 0.0 0.0 0.01 0.01 0.01 92 1014.6
20260502123523 49 324 0.0 0.0 0.01 0.01 0.01 92 1014.2
20260502123034 49 324 0.0 0.0 0.01 0.01 0.01 91 1014.2
20260502122531 49 324 0.0 0.0 0.01 0.01 0.01 91 1014.0
20260502122021 49 324 0.0 0.0 0.01 0.01 0.01 91 1014.0
20260502121515 49 324 0.0 0.0 0.00 0.00 0.00 91 1013.9
20260502121035 49 324 0.0 0.0 0.00 0.00 0.00 91 1013.9
20260502120558 49 324 0.0 0.0 0.00 0.00 0.00 91 1014.0
20260502115521 49 324 0.0 0.0 0.00 0.00 0.00 91 1014.0
20260502115020 49 324 0.0 0.0 0.00 0.00 0.00 91 1013.9
20260502114516 49 324 0.0 0.0 0.00 0.00 0.00 91 1013.9
20260502114034 50 324 0.0 0.0 0.00 0.00 0.00 91 1013.9
20260502113536 50 324 0.0 0.0 0.00 0.00 0.00 91 1013.9
20260502113026 50 324 0.0 0.0 0.00 0.00 0.00 91 1013.9
20260502112517 50 324 0.0 0.0 0.00 0.00 0.00 91 1014.0
20260502112027 50 324 0.0 0.0 0.00 0.00 0.00 91 1013.9
20260502111540 50 324 0.0 0.0 0.00 0.00 0.00 91 1013.8
20260502111051 50 324 0.0 0.0 0.00 0.00 0.00 91 1013.8
20260502110554 50 324 0.0 0.0 0.00 0.00 0.00 90 1013.8
20260502110055 51 324 0.0 0.0 0.00 0.00 0.00 91 1013.7
20260502105555 51 324 0.0 0.0 0.00 0.00 0.00 91 1013.7
20260502105025 51 324 0.0 0.0 0.00 0.00 0.00 91 1013.5
20260502104526 51 324 0.0 0.0 0.00 0.00 0.00 90 1013.6
20260502104022 51 324 0.0 0.0 0.00 0.00 0.00 90 1013.6
20260502103521 51 324 0.0 0.0 0.00 0.00 0.00 91 1013.4
20260502103020 51 324 0.0 0.0 0.00 0.00 0.00 91 1013.5
20260502102521 52 324 0.0 0.0 0.00 0.00 0.00 91 1013.5
20260502102018 52 324 0.0 0.0 0.00 0.00 0.00 91 1013.6
20260502101558 52 324 0.0 0.0 0.00 0.00 0.00 91 1013.6
20260502101022 52 324 0.0 0.0 0.00 0.00 0.00 91 1013.5
20260502100547 52 324 0.0 0.0 0.00 0.00 0.00 91 1013.7
20260502091020 52 324 0.0 0.0 0.00 0.00 0.00 90 1013.6
20260502090545 52 324 0.0 0.0 0.00 0.00 0.00 90 1013.7
20260502071517 51 324 0.0 0.0 0.00 0.00 0.00 88 1014.3
20260502071035 51 324 0.0 0.0 0.00 0.00 0.00 88 1014.3
20260502070607 51 324 0.0 0.0 0.00 0.00 0.00 88 1014.3
20260502070030 51 324 0.0 0.0 0.00 0.00 0.00 88 1014.2
20260502065521 52 324 0.0 0.0 0.00 0.00 0.00 88 1014.1
20260502065039 52 324 0.0 0.0 0.00 0.00 0.00 88 1014.2
20260502064557 52 324 0.0 0.0 0.00 0.00 0.00 87 1014.1
20260502064025 52 324 0.0 0.0 0.00 0.00 0.00 87 1014.1
20260502063522 52 324 0.0 0.0 0.00 0.00 0.00 87 1014.1
20260502063029 52 324 0.0 0.0 0.00 0.00 0.00 87 1014.1
20260502062531 52 324 0.0 0.0 0.00 0.00 0.00 87 1014.1
20260502062024 52 324 0.0 0.0 0.00 0.00 0.00 87 1014.1
20260502061538 52 324 0.0 0.0 0.00 0.00 0.00 87 1014.2
20260502061031 52 324 0.0 0.0 0.00 0.00 0.00 87 1014.0
20260502060549 53 324 0.0 0.0 0.00 0.00 0.00 86 1013.9
20260502060034 53 324 0.0 0.0 0.00 0.00 0.00 86 1014.0
20260502055556 53 324 0.0 0.0 0.00 0.00 0.00 86 1014.0
20260502055026 53 324 0.0 0.0 0.00 0.00 0.00 86 1014.0
20260502054524 53 324 0.0 0.0 0.00 0.00 0.00 86 1014.0
20260502054025 53 324 0.0 0.0 0.00 0.00 0.00 86 1014.1
20260502053522 53 324 0.0 0.0 0.00 0.00 0.00 85 1014.1
20260502053014 54 324 0.0 0.0 0.00 0.00 0.00 85 1014.2
20260502052536 54 324 0.0 0.0 0.00 0.00 0.00 85 1014.2
20260502052047 54 324 0.0 0.0 0.00 0.00 0.00 85 1014.2
20260502051547 54 324 0.0 0.0 0.00 0.00 0.00 85 1014.1
20260502051035 54 324 0.0 0.0 0.00 0.00 0.00 85 1014.2
20260502050602 55 324 0.0 0.0 0.00 0.00 0.00 85 1014.2
20260502050027 55 324 0.0 0.0 0.00 0.00 0.00 85 1014.2
20260502045522 55 324 0.0 0.0 0.00 0.00 0.00 84 1014.2
20260502045021 55 324 0.0 0.0 0.00 0.00 0.00 84 1014.2
20260502044537 56 324 0.0 0.0 0.00 0.00 0.00 84 1014.1
20260502044027 56 324 0.0 0.0 0.00 0.00 0.00 84 1014.1
20260502043522 56 324 0.0 0.0 0.00 0.00 0.00 84 1014.1
20260502043021 56 324 0.0 0.0 0.00 0.00 0.00 84 1014.1
20260502042522 56 324 0.0 0.0 0.00 0.00 0.00 84 1014.0
20260502042022 56 324 0.0 0.0 0.00 0.00 0.00 84 1014.0
20260502041520 57 324 0.0 0.0 0.00 0.00 0.00 83 1013.9
20260502041019 57 324 0.0 0.0 0.00 0.00 0.00 83 1013.9
20260502040613 57 324 0.0 0.0 0.00 0.00 0.00 83 1013.9
20260502040036 57 324 0.0 0.0 0.00 0.00 0.00 83 1013.8
20260502035537 57 324 0.0 0.0 0.00 0.00 0.00 82 1013.9
20260502035024 58 324 0.0 1.0 0.00 0.00 0.00 82 1013.7
20260502034525 58 324 0.0 1.0 0.00 0.00 0.00 81 1013.5
20260502034024 58 324 0.0 0.0 0.00 0.00 0.00 81 1013.4
20260502033518 59 324 0.0 0.0 0.00 0.00 0.00 80 1013.2
20260502033030 59 324 0.0 0.0 0.00 0.00 0.00 80 1013.2
20260502032533 59 324 0.0 0.0 0.00 0.00 0.00 80 1013.2
20260502032021 59 326 0.0 0.0 0.00 0.00 0.00 79 1013.2
20260502031517 60 326 0.0 0.0 0.00 0.00 0.00 78 1013.1
20260502031031 60 326 0.0 0.0 0.00 0.00 0.00 78 1013.0
20260502030558 61 326 0.0 0.0 0.00 0.00 0.00 77 1012.9
20260502030043 61 326 0.0 0.0 0.00 0.00 0.00 77 1012.9
20260502025540 61 326 0.0 0.0 0.00 0.00 0.00 76 1012.8
20260502025032 62 326 0.0 0.0 0.00 0.00 0.00 76 1012.8
20260502024556 62 326 0.0 1.0 0.00 0.00 0.00 75 1012.8
20260502024024 62 327 0.0 0.0 0.00 0.00 0.00 75 1012.9
20260502023543 63 327 0.0 0.0 0.00 0.00 0.00 75 1012.8
20260502023031 63 327 0.0 0.0 0.00 0.00 0.00 74 1012.7
20260502022533 63 327 0.0 0.0 0.00 0.00 0.00 74 1012.8
20260502022025 64 327 0.0 0.0 0.00 0.00 0.00 73 1012.8
20260502021528 64 327 0.0 0.0 0.00 0.00 0.00 73 1012.7
20260502021023 64 327 0.0 0.0 0.00 0.00 0.00 73 1012.8
20260502020548 64 327 0.0 0.0 0.00 0.00 0.00 72 1012.7
20260502020017 65 327 0.0 3.0 0.00 0.00 0.00 72 1012.6
20260502015517 65 327 0.0 3.0 0.00 0.00 0.00 72 1012.6
20260502015030 65 331 0.0 2.0 0.00 0.00 0.00 71 1012.6
20260502014534 65 331 0.0 2.0 0.00 0.00 0.00 71 1012.7
20260502014024 66 331 0.0 2.0 0.00 0.00 0.00 70 1012.6
20260502013526 66 331 0.0 4.0 0.00 0.00 0.00 69 1012.6
20260502013016 66 333 0.0 4.0 0.00 0.00 0.00 69 1012.6
20260502012518 67 30 0.0 0.0 0.00 0.00 0.00 69 1012.5
20260502012017 67 30 0.0 2.0 0.00 0.00 0.00 69 1012.5
20260502011539 67 30 0.0 2.0 0.00 0.00 0.00 69 1012.5
20260502011029 67 20 0.0 1.0 0.00 0.00 0.00 68 1012.6
20260502010605 68 24 0.0 4.0 0.00 0.00 0.00 68 1012.5
20260502010026 68 24 1.0 4.0 0.00 0.00 0.00 68 1012.5
20260502005526 68 276 1.0 4.0 0.00 0.00 0.00 67 1012.5
20260502005027 68 275 0.0 3.0 0.00 0.00 0.00 66 1012.6
20260502004521 69 267 0.0 3.0 0.00 0.00 0.00 66 1012.5
20260502004031 69 267 2.0 6.0 0.00 0.00 0.00 65 1012.6
20260502003535 70 257 1.0 6.0 0.00 0.00 0.00 65 1012.5
20260502003022 70 330 0.0 3.0 0.00 0.00 0.00 64 1012.6
20260502002524 70 333 1.0 5.0 0.00 0.00 0.00 64 1012.6
20260502002024 70 10 2.0 5.0 0.00 0.00 0.00 63 1012.6
20260502001525 71 342 1.0 6.0 0.00 0.00 0.00 63 1012.5
20260502001023 71 286 2.0 9.0 0.00 0.00 0.00 62 1012.4
20260502000547 71 294 3.0 9.0 0.00 0.00 0.00 62 1012.5
20260502000029 71 219 1.0 9.0 0.00 0.00 0.00 63 1012.5
20260501235529 71 306 1.0 9.0 0.00 0.00 0.00 63 1012.5
20260501235025 71 347 2.0 8.0 0.00 0.00 0.00 62 1012.6
20260501234519 71 198 0.0 9.0 0.00 0.00 0.00 63 1012.6
20260501234032 71 333 3.0 9.0 0.00 0.00 0.00 62 1012.6
20260501233533 71 28 3.0 9.0 0.00 0.00 0.00 62 1012.5
20260501233020 72 333 2.0 9.0 0.00 0.00 0.00 61 1012.5
20260501232516 72 232 2.0 8.0 0.00 0.00 0.00 61 1012.5
20260501232028 73 312 1.0 12.0 0.00 0.00 0.00 61 1012.6
20260501231540 73 240 2.0 12.0 0.00 0.00 0.00 60 1012.6
20260501231030 73 290 2.0 9.0 0.00 0.00 0.00 60 1012.6
20260501230554 73 323 1.0 9.0 0.00 0.00 0.00 59 1012.6
20260501230034 73 335 2.0 9.0 0.00 0.00 0.00 59 1012.8
20260501225534 74 338 2.0 8.0 0.00 0.00 0.00 59 1012.7
20260501225025 74 346 2.0 8.0 0.00 0.00 0.00 58 1012.8
20260501224520 75 314 2.0 9.0 0.00 0.00 0.00 59 1012.7
20260501224032 74 315 3.0 9.0 0.00 0.00 0.00 59 1012.9
20260501223528 75 322 1.0 9.0 0.00 0.00 0.00 58 1012.9
20260501223024 75 307 0.0 9.0 0.00 0.00 0.00 59 1012.9
20260501222518 75 163 2.0 8.0 0.00 0.00 0.00 59 1013.0
20260501222015 75 294 1.0 8.0 0.00 0.00 0.00 59 1013.0
20260501221537 76 196 1.0 6.0 0.00 0.00 0.00 57 1013.1
20260501221029 76 261 2.0 8.0 0.00 0.00 0.00 57 1013.2
20260501220548 77 348 3.0 8.0 0.00 0.00 0.00 57 1013.3
20260501220021 77 338 0.0 6.0 0.00 0.00 0.00 58 1013.4
20260501215515 77 263 0.0 6.0 0.00 0.00 0.00 57 1013.6
20260501215034 76 69 1.0 6.0 0.00 0.00 0.00 60 1013.5
20260501214536 76 315 2.0 8.0 0.00 0.00 0.00 59 1013.6
20260501214025 76 336 2.0 8.0 0.00 0.00 0.00 58 1013.7
20260501213515 76 61 3.0 7.0 0.00 0.00 0.00 58 1013.7
20260501213028 76 173 3.0 10.0 0.00 0.00 0.00 59 1013.7
20260501212546 75 206 2.0 10.0 0.00 0.00 0.00 61 1013.7
20260501212040 75 360 2.0 10.0 0.00 0.00 0.00 59 1013.9
20260501211520 75 329 2.0 12.0 0.00 0.00 0.00 59 1013.8
20260501211027 75 235 0.0 12.0 0.00 0.00 0.00 62 1013.8
20260501210552 75 330 3.0 8.0 0.00 0.00 0.00 60 1013.8